Regional Weather Roundup
Issued by NWS

Home | Current Version | Previous Version | Graphics & Text | Print | Product List | Glossary On
Versions: 1 2 3 4 5 6 7 8 9 10 11 12 13 14 15 16 17 18 19 20 21 22 23 24 25 26 27 28 29 30 31 32 33 34 35 36 37 38 39 40 41 42 43 44 45 46 47 48 49 50
000
ASUS43 KIND 271509
RWRIN

WEATHER ROUNDUP FOR INDIANA
NATIONAL WEATHER SERVICE INDIANAPOLIS IN
1000 AM EST THU NOV 27 2014

NOTE: "FAIR" INDICATES FEW OR NO CLOUDS BELOW 12,000 FEET WITH NO
SIGNIFICANT WEATHER AND/OR OBSTRUCTIONS TO VISIBILITY.

* - STATION DOES NOT REPORT WEATHER SUCH AS PRECIPITATION OR FOG.

+ - STATION NOT QUALITY CONTROLLED BY THE NATIONAL WEATHER SERVICE.
    USE DATA WITH CAUTION...ESPECIALLY DEWPOINT AND RELATIVE
    HUMIDITY OBSERVATIONS.

INZ001>003-010>013-019-020-271600-
NORTHWEST INDIANA

CITY           SKY/WX    TMP DP  RH WIND       PRES   REMARKS
GARY /AIRPORT/ CLOUDY    28  21  74 W12       30.31R WCI  18
KNOX *+        CLOUDY    28  25  86 W10       30.26R WCI  19
LA PORTE +     LGT SNOW  31  27  86 NW13G18   30.27R WCI  21
MICHIGAN CITY+ CLOUDY    30  23  74 W13       30.27R WCI  20
MONTICELLO +   CLOUDY    26  22  84 W13       30.30R WCI  15
RENSSELAER +   CLOUDY    27  27 100 W12       30.31R FOG     WCI  16
VALPARAISO     CLOUDY    26  20  77 W14       30.29R WCI  14

$$

LMZ046-743>745-271600-
SOUTHERN LAKE MICHIGAN

STATION/POSITION TIME  TEMP WIND        PRES
                       AIR  DIR/SP/G
                 (UTC) (F)  (DEG/KT/KT) (MB)
MICHIGAN CITY    1500   30  260/ 21/ 25   N/A

$$

INZ004-005-014>016-021>024-271600-
NORTH CENTRAL INDIANA

CITY           SKY/WX    TMP DP  RH WIND       PRES   REMARKS
GOSHEN         LGT SNOW  30  27  88 W7        30.22R VSB 3/4 WCI  23
LOGANSPORT +   LGT SNOW  28  23  80 NW9G18    30.29R WCI  20
PERU/GRISSOM   LGT SNOW  28  28 100 W13       30.27R FOG     WCI  18
ROCHESTER +    LGT SNOW  32  28  86 W12       30.26R WCI  23
SOUTH BEND     LGT SNOW  31  28  89 NW10      30.24R FOG     WCI  22
WARSAW +       LGT SNOW  30  28  93 W6        30.23R WCI  24

$$

INZ006>009-017-018-025>027-271600-
NORTHEAST INDIANA

CITY           SKY/WX    TMP DP  RH WIND       PRES   REMARKS
ANGOLA *+      MOSUNNY   28  21  74 W10       30.20R WCI  19
AUBURN +       CLOUDY    32  23  69 W8        30.22R WCI  25
FORT WAYNE     PTSUNNY   31  25  78 W10       30.23R WCI  22
HUNTINGTON +   LGT SNOW  29  27  92 W8        30.24R WCI  21

$$

INZ028-029-035-036-043>045-051>053-271600-
WEST CENTRAL INDIANA

CITY           SKY/WX    TMP DP  RH WIND       PRES   REMARKS
GREENCASTLE +  CLOUDY    28  23  80 NW6       30.32R FOG     WCI  22
LAFAYETTE      CLOUDY    26  21  81 W14       30.32R HAZE    WCI  14
TERRE HAUTE    CLOUDY    27  20  75 NW15      30.37R WCI  15

$$

INZ030>032-037>040-046>048-054>057-064-065-271600-
CENTRAL INDIANA

CITY           SKY/WX    TMP DP  RH WIND       PRES   REMARKS
CP ATTERBURY + CLOUDY    30  23  74 NW8       30.31R WCI  23
COLUMBUS       CLOUDY    28  25  86 W9        30.32R WCI  20
FRANKFORT +    LGT SNOW  28  25  89 W10       30.31R WCI  19
INDIANAPOLIS   LGT SNOW  27  23  85 W13       30.29R FOG     WCI  16
-EAGLE CREEK   LGT SNOW  28  25  88 NW15      30.29R FOG     WCI  16
KOKOMO *+      CLOUDY    28  27  93 NW14      30.27R WCI  17
MARION +       LGT SNOW  28  26  92 W10       30.26R WCI  19
MT COMFORT *+  CLOUDY    28  23  80 W9        30.28R WCI  20
SHELBYVILLE    LGT SNOW  29  23  78 W9        30.29R WCI  20
ZIONSVILLE +   LGT SNOW  28  25  86 W9        30.28S WCI  20

$$

INZ033-034-041-042-049-050-058-059-271600-
EAST CENTRAL INDIANA

CITY           SKY/WX    TMP DP  RH WIND       PRES   REMARKS
MUNCIE         LGT SNOW  29  24  82 W12       30.25R WCI  19

$$

INZ060-061-067>069-081>083-085>088-271600-
SOUTHWEST INDIANA

CITY           SKY/WX    TMP DP  RH WIND       PRES   REMARKS
EVANSVILLE     CLOUDY    29  22  75 NW12      30.43R WCI  19
HUNTINGBURG *+ CLOUDY    28  21  74 NW9       30.39R WCI  20
WASHINGTON +   CLOUDY    28  25  90 NW13      30.38R WCI  17

$$

INZ062-063-066-070>080-084-089>092-271600-
SOUTH CENTRAL AND SOUTHEAST INDIANA

CITY           SKY/WX    TMP DP  RH WIND       PRES   REMARKS
BLOOMINGTON    CLOUDY    27  22  81 W10       30.34R HAZE    WCI  17

$$




USA.gov is the U.S. government's official web portal to all federal, state and local government web resources and services.